DW6368 Weather Reports


Display with metric or nautical units.
time (UTC)temp
F
wind
direction
speed
MPH
gust
MPH
rain 1hr
in
rain 24hr
in
rain mn
in
humidity
%
barometer
mb
20260504045802 62 284 2.0 5.0 0.00 0.00 0.00 76 1014.2
20260504044803 62 278 4.0 6.0 0.00 0.00 0.00 77 1014.2
20260504042803 62 271 1.0 5.0 0.00 0.00 0.00 76 1014.1
20260504041802 62 279 1.0 6.0 0.00 0.00 0.00 76 1013.9
20260504035824 62 301 3.0 7.0 0.00 0.00 0.00 76 1013.6
20260504034803 62 276 4.0 7.0 0.00 0.00 0.00 76 1013.7
20260504032802 62 278 3.0 9.0 0.00 0.00 0.00 76 1013.3
20260504031803 62 284 5.0 11.0 0.00 0.00 0.00 76 1013.1
20260504025803 63 287 6.0 10.0 0.00 0.00 0.00 75 1013.1
20260504024803 63 286 2.0 9.0 0.00 0.00 0.00 75 1012.8
20260504022803 64 252 3.0 9.0 0.00 0.00 0.00 72 1012.8
20260504021803 64 236 3.0 11.0 0.00 0.00 0.00 71 1012.7
20260504015802 65 231 4.0 9.0 0.00 0.00 0.00 68 1012.5
20260504014803 66 224 3.0 10.0 0.00 0.00 0.00 68 1012.3
20260504012802 66 256 4.0 9.0 0.00 0.00 0.00 69 1012.1
20260504011803 66 247 3.0 10.0 0.00 0.00 0.00 71 1012.2
20260504005802 66 300 2.0 11.0 0.00 0.00 0.00 71 1011.9
20260504004803 66 310 4.0 10.0 0.00 0.00 0.00 72 1011.9
20260504002803 66 282 4.0 12.0 0.00 0.00 0.00 71 1012.0
20260504001803 67 276 4.0 12.0 0.00 0.00 0.00 70 1011.9
20260503235607 67 299 4.0 0.0 0.00 0.00 0.00 68 1011.6
20260503234803 68 241 3.0 13.0 0.00 0.00 0.00 68 1011.6
20260503232802 70 232 5.0 10.0 0.00 0.00 0.00 65 1011.8
20260503231824 71 231 3.0 7.0 0.00 0.00 0.00 64 1011.9
20260503225803 70 223 3.0 7.0 0.00 0.00 0.00 61 1012.0
20260503224802 71 349 1.0 6.0 0.00 0.00 0.00 56 1012.1
20260503222803 71 233 4.0 9.0 0.00 0.00 0.00 57 1012.2
20260503221802 71 203 2.0 9.0 0.00 0.00 0.00 57 1012.3
20260503215803 72 242 4.0 9.0 0.00 0.00 0.00 54 1012.5
20260503214824 73 215 3.0 10.0 0.00 0.00 0.00 54 1012.7
20260503212803 74 169 3.0 11.0 0.00 0.00 0.00 53 1012.8
20260503211803 74 233 3.0 11.0 0.00 0.00 0.00 54 1012.7
20260503205802 74 241 5.0 11.0 0.00 0.00 0.00 54 1012.7
20260503204824 73 237 3.0 10.0 0.00 0.00 0.00 55 1012.8
20260503202802 75 246 5.0 9.0 0.00 0.00 0.00 53 1013.0
20260503201803 75 213 2.0 9.0 0.00 0.00 0.00 56 1013.0
20260503195824 72 232 4.0 9.0 0.00 0.00 0.00 60 1013.1
20260503194803 72 198 2.0 6.0 0.00 0.00 0.00 59 1013.2
20260503192803 72 151 2.0 6.0 0.00 0.00 0.00 61 1013.4
20260503191804 71 241 2.0 7.0 0.00 0.00 0.00 62 1013.4
20260503185803 69 163 2.0 7.0 0.00 0.00 0.00 64 1013.6
20260503184802 69 257 3.0 6.0 0.00 0.00 0.00 65 1013.7
20260503182802 68 236 3.0 7.0 0.00 0.00 0.00 67 1013.8
20260503181803 68 276 2.0 7.0 0.00 0.00 0.00 66 1013.8
20260503175845 66 238 3.0 10.0 0.00 0.00 0.00 68 1013.9
20260503174823 66 233 4.0 7.0 0.00 0.00 0.00 70 1013.9
20260503172803 65 216 3.0 10.0 0.00 0.00 0.00 71 1013.8
20260503171803 65 258 4.0 9.0 0.00 0.00 0.00 72 1013.6
20260503072803 60 268 1.0 3.0 0.00 0.00 0.00 90 1012.3
20260503071802 60 282 1.0 3.0 0.00 0.00 0.00 90 1012.2